This is the latest recevied weather packets stored in our database for station/object N4ZIQ. If no packets are shown the sender has not sent any weather packets the latest 10 day(s).
| Time | Temp. | Humidity | Pressure | Rain* | Wind** | Luminosity | Snow |
|---|---|---|---|---|---|---|---|
| 1777828570 | 23.33° C | 72% | 1017.8 hPa | 0 mm | - | 475 W/m² | - |
| 1777828245 | 22.78° C | 73% | 1017.9 hPa | 0 mm | - | 529 W/m² | - |
| 1777827947 | 22.78° C | 74% | 1018 hPa | 0 mm | - | 457 W/m² | - |
| 1777827663 | 22.78° C | 72% | 1018 hPa | 0 mm | - | 255 W/m² | - |
| 1777827347 | 22.78° C | 73% | 1018 hPa | 0 mm | - | 540 W/m² | - |
| 1777827048 | 22.78° C | 73% | 1018.3 hPa | 0 mm | - | 469 W/m² | - |
| 1777826750 | 22.22° C | 74% | 1018.3 hPa | 0 mm | - | 394 W/m² | - |
| 1777826444 | 22.22° C | 74% | 1018.4 hPa | 0 mm | - | 359 W/m² | - |
| 1777826144 | 21.67° C | 75% | 1018.5 hPa | 0 mm | - | 359 W/m² | - |
| 1777825865 | 22.22° C | 73% | 1018.5 hPa | 0 mm | - | 323 W/m² | - |
| 1777825548 | 22.22° C | 74% | 1018.5 hPa | 0 mm | - | 443 W/m² | - |
| 1777825246 | 21.67° C | 76% | 1018.6 hPa | 0 mm | - | 390 W/m² | - |
| 1777824952 | 21.11° C | 77% | 1018.6 hPa | 0 mm | - | 359 W/m² | - |
| 1777824647 | 21.11° C | 77% | 1018.7 hPa | 0 mm | - | 234 W/m² | - |
| 1777824347 | 21.11° C | 77% | 1018.6 hPa | 0 mm | - | 276 W/m² | - |
| 1777824053 | 21.11° C | 78% | 1018.6 hPa | 0 mm | - | 209 W/m² | - |
| 1777823748 | 21.11° C | 80% | 1018.5 hPa | 0 mm | - | 302 W/m² | - |
| 1777823446 | 21.11° C | 81% | 1018.5 hPa | 0 mm | - | 221 W/m² | - |
| 1777823163 | 20.56° C | 81% | 1018.5 hPa | 0 mm | - | 248 W/m² | - |
| 1777822846 | 20.56° C | 82% | 1018.5 hPa | 0 mm | - | 223 W/m² | - |
| 1777822545 | 20.56° C | 83% | 1018.5 hPa | 0 mm | - | 221 W/m² | - |
| 1777822251 | 20.56° C | 84% | 1018.5 hPa | 0 mm | - | 244 W/m² | - |
| 1777821947 | 20.56° C | 85% | 1018.5 hPa | 0 mm | - | 276 W/m² | - |
| 1777821644 | 20° C | 85% | 1018.6 hPa | 0 mm | - | 227 W/m² | - |
| 1777821354 | 20° C | 85% | 1018.6 hPa | 0 mm | - | 250 W/m² | - |
* Rain latest hour (hover to see other rain measurements)
** Current wind speed in m/s (hover to see current wind gust speed)